When you browse on this site, cookies collect data to enhance your experience and personalize the content and advertising you see.
Visit our Privacy Policy to learn more. By continuing to use the site, you agree to this use of cookies and data.
  • In Czech Republic
  • List of Countries
  • For 7 days
  • Water Temperature
  • Satellite Maps
  • Weather Map
  • Weather Widgets
  • user-avatar
    Login

    Hourly Weather Campeche

    Today, 22 January, Tuesday

    Time Temperature Precipitation Wind Pressure Humidity
    00:00 +15°C° 0 mm 0 mps 763 mmHg 76%
    01:00 +16°C° 0 mm 1 mps 762 mmHg 76%
    02:00 +16°C° 0 mm 1 mps 762 mmHg 75%
    03:00 +15°C° 0 mm 1 mps 762 mmHg 75%
    04:00 +15°C° 0 mm 1 mps 762 mmHg 79%
    05:00 +15°C° 0 mm 1 mps 762 mmHg 83%
    06:00 +15°C° 0 mm 1 mps 762 mmHg 86%
    07:00 +19°C° 0 mm 1 mps 762 mmHg 80%
    08:00 +20°C° 0 mm 2 mps 762 mmHg 74%
    09:00 +24°C° 0 mm 2 mps 762 mmHg 68%
    10:00 +26°C° 0 mm 2 mps 762 mmHg 62%
    11:00 +28°C° 0 mm 3 mps 762 mmHg 55%
    12:00 +31°C° 0 mm 3 mps 761 mmHg 48%
    13:00 +31°C° 0 mm 3 mps 760 mmHg 47%
    14:00 +33°C° 0 mm 3 mps 760 mmHg 46%
    15:00 +33°C° 0 mm 3 mps 759 mmHg 45%
    16:00 +31°C° 0 mm 2 mps 759 mmHg 52%
    17:00 +29°C° 0 mm 2 mps 759 mmHg 59%
    18:00 +27°C° 0 mm 1 mps 759 mmHg 65%
    19:00 +26°C° 0 mm 1 mps 759 mmHg 71%
    20:00 +25°C° 0 mm 1 mps 759 mmHg 77%
    21:00 +24°C° 0 mm 1 mps 760 mmHg 82%
    22:00 +23°C° 0 mm 1 mps 759 mmHg 86%
    23:00 +23°C° 0 mm 1 mps 759 mmHg 90%

    Tomorrow, 23 January, Wednesday

    Time Temperature Precipitation Wind Pressure Humidity
    00:00 +23°C° 0 mm 1 mps 759 mmHg 93%
    01:00 +23°C° 0 mm 1 mps 759 mmHg 93%
    02:00 +23°C° 0 mm 1 mps 758 mmHg 92%
    03:00 +24°C° 0 mm 1 mps 758 mmHg 92%
    04:00 +24°C° 0 mm 1 mps 758 mmHg 92%
    05:00 +24°C° 0 mm 1 mps 758 mmHg 92%
    06:00 +24°C° 0 mm 2 mps 758 mmHg 92%
    07:00 +25°C° 0 mm 2 mps 758 mmHg 85%
    08:00 +27°C° 0 mm 3 mps 759 mmHg 78%
    09:00 +28°C° 0 mm 3 mps 759 mmHg 71%
    10:00 +30°C° 0 mm 3 mps 759 mmHg 63%
    11:00 +33°C° 0 mm 3 mps 758 mmHg 55%
    12:00 +35°C° 0 mm 4 mps 758 mmHg 47%
    13:00 +36°C° 0 mm 3 mps 757 mmHg 45%
    14:00 +37°C° 0 mm 3 mps 756 mmHg 42%
    15:00 +37°C° 0 mm 3 mps 756 mmHg 40%
    16:00 +35°C° 0 mm 2 mps 756 mmHg 45%
    17:00 +32°C° 0 mm 1 mps 757 mmHg 50%
    18:00 +30°C° 0 mm 1 mps 757 mmHg 55%
    19:00 +28°C° 1.8 mm 1 mps 758 mmHg 69%
    20:00 +26°C° 1.8 mm 1 mps 759 mmHg 82%
    21:00 +24°C° 1.8 mm 1 mps 760 mmHg 95%
    22:00 +22°C° 0.9 mm 0 mps 760 mmHg 95%
    23:00 +22°C° 0.9 mm 0 mps 760 mmHg 96%

    Day after tomorrow, 24 January, Thursday

    Time Temperature Precipitation Wind Pressure Humidity
    00:00 +22°C° 0.9 mm 0 mps 760 mmHg 96%
    01:00 +21°C° 0.2 mm 0 mps 760 mmHg 97%
    02:00 +23°C° 0.2 mm 1 mps 759 mmHg 98%
    03:00 +23°C° 0.2 mm 1 mps 759 mmHg 98%
    04:00 +23°C° 0 mm 1 mps 760 mmHg 98%
    05:00 +23°C° 0 mm 2 mps 760 mmHg 98%
    06:00 +23°C° 0 mm 2 mps 760 mmHg 97%
    07:00 +23°C° 0 mm 2 mps 761 mmHg 96%
    08:00 +23°C° 0 mm 2 mps 762 mmHg 95%
    09:00 +23°C° 0 mm 2 mps 762 mmHg 94%
    10:00 +25°C° 0 mm 2 mps 762 mmHg 85%
    11:00 +26°C° 0 mm 2 mps 762 mmHg 76%
    12:00 +27°C° 0 mm 2 mps 762 mmHg 66%
    13:00 +27°C° 0 mm 2 mps 761 mmHg 65%
    14:00 +27°C° 0 mm 2 mps 761 mmHg 64%
    15:00 +27°C° 0 mm 2 mps 760 mmHg 63%
    16:00 +26°C° 0 mm 2 mps 761 mmHg 66%
    17:00 +25°C° 0 mm 2 mps 761 mmHg 69%
    18:00 +24°C° 0 mm 2 mps 761 mmHg 72%
    19:00 +23°C° 0 mm 2 mps 762 mmHg 77%
    20:00 +22°C° 0 mm 1 mps 762 mmHg 81%
    21:00 +21°C° 0 mm 1 mps 763 mmHg 85%
    22:00 +20°C° 0 mm 1 mps 763 mmHg 88%
    23:00 +20°C° 0 mm 1 mps 763 mmHg 91%

    25 January, Friday

    Time Temperature Precipitation Wind Pressure Humidity
    00:00 +19°C° 0 mm 1 mps 763 mmHg 94%
    01:00 +19°C° 0 mm 1 mps 762 mmHg 95%
    02:00 +18°C° 0 mm 1 mps 762 mmHg 95%
    03:00 +18°C° 0 mm 1 mps 762 mmHg 95%
    04:00 +18°C° 0 mm 1 mps 762 mmHg 95%
    05:00 +18°C° 0 mm 1 mps 763 mmHg 96%
    06:00 +18°C° 0 mm 1 mps 763 mmHg 96%
    07:00 +19°C° 0 mm 1 mps 764 mmHg 88%
    08:00 +21°C° 0 mm 1 mps 764 mmHg 80%
    09:00 +21°C° 0 mm 2 mps 765 mmHg 72%
    10:00 +24°C° 0 mm 2 mps 764 mmHg 67%
    11:00 +25°C° 0 mm 1 mps 764 mmHg 61%
    12:00 +26°C° 0 mm 1 mps 764 mmHg 56%
    13:00 +27°C° 0 mm 1 mps 763 mmHg 52%
    14:00 +28°C° 0 mm 1 mps 762 mmHg 49%
    15:00 +29°C° 0 mm 1 mps 761 mmHg 45%
    16:00 +27°C° 0 mm 1 mps 762 mmHg 51%
    17:00 +26°C° 0 mm 1 mps 762 mmHg 56%
    18:00 +25°C° 0 mm 1 mps 762 mmHg 61%
    19:00 +24°C° 0 mm 1 mps 763 mmHg 64%
    20:00 +23°C° 0 mm 2 mps 764 mmHg 66%
    21:00 +23°C° 0 mm 2 mps 764 mmHg 69%
    22:00 +20°C° 0 mm 2 mps 764 mmHg 73%
    23:00 +20°C° 0 mm 1 mps 764 mmHg 77%

    26 January, Saturday

    Time Temperature Precipitation Wind Pressure Humidity
    00:00 +19°C° 0 mm 1 mps 764 mmHg 80%
    01:00 +18°C° 0 mm 1 mps 763 mmHg 84%
    02:00 +18°C° 0 mm 1 mps 763 mmHg 87%
    03:00 +15°C° 0 mm 0 mps 762 mmHg 90%
    04:00 +15°C° 0 mm 0 mps 762 mmHg 91%
    05:00 +14°C° 0 mm 0 mps 762 mmHg 92%
    06:00 +15°C° 0 mm 1 mps 762 mmHg 93%
    07:00 +18°C° 0 mm 1 mps 762 mmHg 84%
    08:00 +20°C° 0 mm 1 mps 763 mmHg 76%
    09:00 +21°C° 0 mm 2 mps 763 mmHg 67%
    10:00 +24°C° 0 mm 1 mps 762 mmHg 58%
    11:00 +27°C° 0 mm 1 mps 762 mmHg 50%
    12:00 +29°C° 0 mm 1 mps 761 mmHg 42%
    13:00 +30°C° 0 mm 1 mps 760 mmHg 41%
    14:00 +30°C° 0 mm 1 mps 759 mmHg 40%
    15:00 +31°C° 0 mm 1 mps 758 mmHg 39%
    16:00 +29°C° 0 mm 1 mps 759 mmHg 45%
    17:00 +27°C° 0 mm 1 mps 759 mmHg 50%
    18:00 +25°C° 0 mm 1 mps 759 mmHg 56%
    19:00 +24°C° 0 mm 1 mps 759 mmHg 64%
    20:00 +20°C° 0 mm 0 mps 760 mmHg 71%
    21:00 +19°C° 0 mm 0 mps 760 mmHg 79%
    22:00 +18°C° 0 mm 0 mps 760 mmHg 82%
    23:00 +18°C° 0 mm 0 mps 760 mmHg 85%

    27 January, Sunday

    Time Temperature Precipitation Wind Pressure Humidity
    00:00 +17°C° 0 mm 0 mps 759 mmHg 89%
    01:00 +17°C° 0 mm 0 mps 759 mmHg 91%
    02:00 +16°C° 0 mm 0 mps 759 mmHg 94%
    03:00 +16°C° 0 mm 0 mps 759 mmHg 97%
    04:00 +16°C° 0 mm 0 mps 759 mmHg 97%
    05:00 +16°C° 0 mm 0 mps 760 mmHg 97%
    06:00 +16°C° 0 mm 0 mps 760 mmHg 98%
    07:00 +18°C° 0 mm 0 mps 761 mmHg 89%
    08:00 +19°C° 0 mm 0 mps 761 mmHg 81%
    09:00 +21°C° 0 mm 0 mps 762 mmHg 73%
    10:00 +25°C° 0 mm 1 mps 761 mmHg 63%
    11:00 +28°C° 0 mm 2 mps 761 mmHg 53%
    12:00 +30°C° 0 mm 2 mps 761 mmHg 44%
    13:00 +30°C° 0 mm 3 mps 760 mmHg 46%
    14:00 +29°C° 0 mm 3 mps 760 mmHg 48%
    15:00 +28°C° 0 mm 4 mps 759 mmHg 50%
    16:00 +26°C° 0 mm 3 mps 759 mmHg 57%
    17:00 +25°C° 0 mm 3 mps 760 mmHg 64%
    18:00 +23°C° 0 mm 2 mps 760 mmHg 71%
    19:00 +21°C° 0 mm 2 mps 760 mmHg 78%
    20:00 +21°C° 0 mm 1 mps 761 mmHg 85%
    21:00 +20°C° 0 mm 1 mps 761 mmHg 92%
    22:00 +19°C° 0 mm 1 mps 761 mmHg 94%
    23:00 +19°C° 0 mm 1 mps 760 mmHg 95%
    Show more